(326361) = 2000 UX5 = 2010 XQ51

Discovered at Kitt Peak on 2000-10-25 by Spacewatch.

Orbit

Orbit type: Main Belt

Note: WebGL enabled browser required.

epoch2023-09-13.0
epoch JD2460200.5
perihelion date2020-07-16.36538
perihelion JD2459046.86538
argument of perihelion (°)6.57543
ascending node (°)30.29672
inclination (°)7.55321
eccentricity0.1598567
perihelion distance (AU)1.8591363
Tisserand w.r.t. Jupiter3.6
ΔV w.r.t. Earth (km/sec)8.7
semimajor axis (AU)2.2128802
mean anomaly (°)345.41030
mean daily motion (°/day)0.29941050
aphelion distance (AU)2.567
period (years)3.29
P-vector [x]0.80047756
P-vector [y]0.54374372
P-vector [z]0.25214768
Q-vector [x]-0.59568313
Q-vector [y]0.67519296
Q-vector [z]0.43505871
absolute magnitude17.73
phase slope0.15
uncertainty0
referenceMPEC 2024-A124
observations used307
oppositions12
arc length (days)8477
first opposition used2000
last opposition used2024
residual rms (arc-secs)0.72
perturbers coarse indicatorM-v
perturbers precise indicator003Ek
first observation date used2000-10-25.0
last observation date used2024-01-10.0
computer nameMPCLINUX
JD of orbit computation2456670.835610
perihelion JD uncertainty (days)8.6827E-05
argument of perihelion uncertainty (°)4.5027E-05
ascending node uncertainty (°)3.3446E-05
inclination uncertainty (°)8.9203E-06
eccentricity uncertainty 9.2719E-08
perihelion distance uncertainty (AU)2.1060E-07
Minimum Orbit Intersection Distances (in AU)
for orbit epoch: 2460200.5, reference: E2024-AC4
Mercury1.53236
Venus1.13688
Earth0.86532
Mars0.39611
Jupiter2.85327
Saturn6.98498
Uranus15.9898
Neptune27.9697

Observations

310 total observations over interval: 2000 10 25.36673 – 2024 01 10.132155
These data are available for download (format description).

Date (UT) J2000 RA J2000 Dec Magn Location Ref
2000 10 25.36673 03 08 12.29 +20 33 06.2 19.6 V 691 – Steward Observatory, Kitt Peak-Spacewatch MPS 21522
2000 10 25.40902 03 08 09.57 +20 33 15.1 19.5 V 691 – Steward Observatory, Kitt Peak-Spacewatch MPS 21522
2000 10 25.44811 03 08 07.08 +20 33 23.2 19.7 V 691 – Steward Observatory, Kitt Peak-Spacewatch MPS 21522
2000 10 26.38615 03 07 09.65 +20 36 43.6 19.6 V 691 – Steward Observatory, Kitt Peak-Spacewatch MPS 21522
2000 10 26.40888 03 07 08.15 +20 36 48.1 19.5 V 691 – Steward Observatory, Kitt Peak-Spacewatch MPS 21522
2000 10 26.43264 03 07 06.59 +20 36 52.9 19.6 V 691 – Steward Observatory, Kitt Peak-Spacewatch MPS 21522
2000 11 01.31138 03 00 39.31 +20 55 07.8 19.6   704 – Lincoln Laboratory ETS, New Mexico MPS 21522
2000 11 01.32571 03 00 38.20 +20 55 10.1 19.6   704 – Lincoln Laboratory ETS, New Mexico MPS 21522
2000 11 01.34006 03 00 37.19 +20 55 13.8 19.1   704 – Lincoln Laboratory ETS, New Mexico MPS 21522
2000 11 01.35460 03 00 36.13 +20 55 14.3 19.3   704 – Lincoln Laboratory ETS, New Mexico MPS 21522
2000 11 03.23279 02 58 25.60 +21 00 07.3 19.3   704 – Lincoln Laboratory ETS, New Mexico MPS 21522
2000 11 03.24628 02 58 24.50 +21 00 10.8 19.7   704 – Lincoln Laboratory ETS, New Mexico MPS 21522
2000 11 03.25977 02 58 23.58 +21 00 12.2 19.5   704 – Lincoln Laboratory ETS, New Mexico MPS 21522
2000 11 03.27327 02 58 22.54 +21 00 13.5 19.9   704 – Lincoln Laboratory ETS, New Mexico MPS 21522
2000 11 20.22481 02 38 55.80 +21 26 54.1 19.1   704 – Lincoln Laboratory ETS, New Mexico MPS 22604
2000 11 20.23966 02 38 54.90 +21 26 54.0 19.6   704 – Lincoln Laboratory ETS, New Mexico MPS 22604
2000 11 20.25454 02 38 53.93 +21 26 56.4 19.6   704 – Lincoln Laboratory ETS, New Mexico MPS 22604
2000 11 20.26939 02 38 52.97 +21 26 56.6 19.3   704 – Lincoln Laboratory ETS, New Mexico MPS 22604
2000 11 20.28425 02 38 51.94 +21 26 57.3 19.4   704 – Lincoln Laboratory ETS, New Mexico MPS 22604
2003 09 25.18411 22 23 18.87 -20 54 25.6 19.4   644 – Palomar Mountain/NEAT MPS 362684
2003 09 25.20539 22 23 17.88 -20 54 21.6 19.7   644 – Palomar Mountain/NEAT MPS 362684
2003 09 25.22697 22 23 16.90 -20 54 17.3 19.4   644 – Palomar Mountain/NEAT MPS 362684
2008 02 06.22624 09 18 27.86 +29 32 06.9 20.4 V 703 – Catalina Sky Survey MPS 362684
2008 02 06.23146 09 18 27.54 +29 32 07.5 20.7 V 703 – Catalina Sky Survey MPS 362684
2008 02 06.23673 09 18 27.03 +29 32 08.3 19.8 V 703 – Catalina Sky Survey MPS 362684
2008 02 06.24192 09 18 26.74 +29 32 10.5 20.1 V 703 – Catalina Sky Survey MPS 362684
2008 03 01.32765 08 53 15.72 +29 38 20.5 20.6 V G96 – Mt. Lemmon Survey MPS 362684
2008 03 01.33438 08 53 15.43 +29 38 18.9 21.2 V G96 – Mt. Lemmon Survey MPS 362684
2008 03 01.34100 08 53 15.14 +29 38 18.1 20.5 V G96 – Mt. Lemmon Survey MPS 362684
2008 03 01.34760 08 53 14.85 +29 38 17.0 20.8 V G96 – Mt. Lemmon Survey MPS 362684
2010 12 09.22873 05 03 09.36 +34 09 13.5 19.0 V G96 – Mt. Lemmon Survey MPS 358697
2010 12 09.23697 05 03 08.67 +34 09 14.7 18.9 V G96 – Mt. Lemmon Survey MPS 358697
2010 12 09.24514 05 03 07.99 +34 09 15.9 19.1 V G96 – Mt. Lemmon Survey MPS 358697
2010 12 09.25331 05 03 07.30 +34 09 17.1 19.1 V G96 – Mt. Lemmon Survey MPS 358697
2010 12 09.38162 05 02 56.70 +34 09 32.7 19.1 R H10 – Tzec Maun Observatory, Mayhill MPS 359448
2010 12 09.38888 05 02 56.06 +34 09 34.8 19.3 R H10 – Tzec Maun Observatory, Mayhill MPS 359448
2010 12 09.39615 05 02 55.51 +34 09 34.5 19.3 R H10 – Tzec Maun Observatory, Mayhill MPS 359448
2010 12 09.40341 05 02 54.88 +34 09 36.0 19.8 R H10 – Tzec Maun Observatory, Mayhill MPS 359448
2010 12 09.41067 05 02 54.30 +34 09 36.8 19.7 R H10 – Tzec Maun Observatory, Mayhill MPS 359448
2010 12 10.38131 05 01 38.19 +34 11 38.8 19.5 R H10 – Tzec Maun Observatory, Mayhill MPS 359448
2010 12 10.39335 05 01 37.22 +34 11 39.9 19.4 R H10 – Tzec Maun Observatory, Mayhill MPS 359448
2010 12 10.41144 05 01 35.77 +34 11 41.6 19.3 R H10 – Tzec Maun Observatory, Mayhill MPS 359448
2012 04 15.44225 14 32 17.649 -15 59 49.17 21.0 w F51 – Pan-STARRS 1, Haleakala MPS 420790
2012 04 15.45610 14 32 16.770 -15 59 47.76 21.2 w F51 – Pan-STARRS 1, Haleakala MPS 420790
2012 04 15.47003 14 32 15.880 -15 59 46.19 21.0 w F51 – Pan-STARRS 1, Haleakala MPS 420790
2012 04 29.35301 14 17 03.19 -15 27 56.0 20.2 V G96 – Mt. Lemmon Survey MPS 422806
2012 04 29.35659 14 17 02.97 -15 27 55.6 20.6 V G96 – Mt. Lemmon Survey MPS 422806
2012 04 29.36019 14 17 02.76 -15 27 55.3 20.8 V G96 – Mt. Lemmon Survey MPS 422806
2012 04 29.36383 14 17 02.50 -15 27 54.9 20.4 V G96 – Mt. Lemmon Survey MPS 422806
2013 08 31.38733 00 49 25.80 -04 11 30.8 19.3 R G32 – Elena Remote Observatory, San Pedro de Atacama MPS 476085
2013 08 31.39214 00 49 25.64 -04 11 31.2 19.2 R G32 – Elena Remote Observatory, San Pedro de Atacama MPS 476085
2013 08 31.39696 00 49 25.52 -04 11 31.8 19.0 R G32 – Elena Remote Observatory, San Pedro de Atacama MPS 476085
2013 08 31.40659 00 49 25.26 -04 11 32.1 19.2 R G32 – Elena Remote Observatory, San Pedro de Atacama MPS 476085
2013 08 31.41140 00 49 25.17 -04 11 32.2 19.0 R G32 – Elena Remote Observatory, San Pedro de Atacama MPS 476085
2013 09 03.35161 00 48 01.39 -04 14 22.4 19.3 R G32 – Elena Remote Observatory, San Pedro de Atacama MPS 476085
2013 09 03.35595 00 48 01.20 -04 14 23.0 19.2 R G32 – Elena Remote Observatory, San Pedro de Atacama MPS 476085
2013 09 03.36030 00 48 01.02 -04 14 23.1 19.3 R G32 – Elena Remote Observatory, San Pedro de Atacama MPS 476085
2013 09 04.24753 00 47 32.46 -04 15 22.4 19.5 R G32 – Elena Remote Observatory, San Pedro de Atacama MPS 476085
2013 09 04.25189 00 47 32.31 -04 15 22.9 19.1 R G32 – Elena Remote Observatory, San Pedro de Atacama MPS 476085
2013 09 04.25624 00 47 32.14 -04 15 23.2 19.0 R G32 – Elena Remote Observatory, San Pedro de Atacama MPS 476085
2013 09 04.26059 00 47 31.97 -04 15 23.2 19.2 R G32 – Elena Remote Observatory, San Pedro de Atacama MPS 476085
2013 09 04.26493 00 47 31.81 -04 15 23.4 19.2 R G32 – Elena Remote Observatory, San Pedro de Atacama MPS 476085
2013 09 04.26928 00 47 31.66 -04 15 23.9 19.0 R G32 – Elena Remote Observatory, San Pedro de Atacama MPS 476085
2013 09 06.34104 00 46 17.70 -04 18 00.7 18.8 V 703 – Catalina Sky Survey MPS 477617
2013 09 06.34829 00 46 17.49 -04 18 01.6 19.6 V 703 – Catalina Sky Survey MPS 477617
2013 09 06.35571 00 46 17.09 -04 18 02.5 19.5 V 703 – Catalina Sky Survey MPS 477617
2013 09 06.36309 00 46 16.86 -04 18 03.3 19.9 V 703 – Catalina Sky Survey MPS 477617
2013 09 09.48740 00 44 08.850 -04 22 10.44 19.6 w F51 – Pan-STARRS 1, Haleakala MPS 477617
2013 09 09.50213 00 44 08.141 -04 22 11.72 19.6 w F51 – Pan-STARRS 1, Haleakala MPS 477617
2013 09 24.32764 00 30 30.71 -04 41 42.7 19.0 V 703 – Catalina Sky Survey MPS 478664
2013 09 24.33439 00 30 30.25 -04 41 43.1 19.4 V 703 – Catalina Sky Survey MPS 478664
2013 09 24.34127 00 30 29.85 -04 41 43.6 19.1 V 703 – Catalina Sky Survey MPS 478664
2013 09 24.34815 00 30 29.43 -04 41 44.3 19.1 V 703 – Catalina Sky Survey MPS 478664
2013 09 25.01888 00 29 46.82 -04 42 21.9 19.7   J43 – Oukaimeden Observatory, Marrakech MPS 478664
2013 09 25.03049 00 29 46.05 -04 42 22.5 19.4   J43 – Oukaimeden Observatory, Marrakech MPS 478664
2013 09 25.04194 00 29 45.25 -04 42 23.0 19.3   J43 – Oukaimeden Observatory, Marrakech MPS 478664
2013 09 25.05335 00 29 44.48 -04 42 23.4 19.5   J43 – Oukaimeden Observatory, Marrakech MPS 478664
2013 09 27.46884 00 27 08.676 -04 44 15.08 19.1 r F51 – Pan-STARRS 1, Haleakala MPS 479941
2013 09 27.48052 00 27 07.874 -04 44 15.54 18.9 i F51 – Pan-STARRS 1, Haleakala MPS 479941
2013 09 27.49251 00 27 07.048 -04 44 15.94 19.0 i F51 – Pan-STARRS 1, Haleakala MPS 479941
2013 09 29.47411 00 24 57.780 -04 45 19.73 19.1 w F51 – Pan-STARRS 1, Haleakala MPS 479941
2013 09 29.48732 00 24 56.872 -04 45 20.07 19.1 w F51 – Pan-STARRS 1, Haleakala MPS 479941
2013 10 04.28866 00 19 43.73 -04 45 45.9 19.2 V 703 – Catalina Sky Survey MPS 479941
2013 10 04.29887 00 19 43.14 -04 45 46.0 19.2 V 703 – Catalina Sky Survey MPS 479941
2013 10 04.30674 00 19 42.65 -04 45 45.5 18.8 V 703 – Catalina Sky Survey MPS 479941
2013 10 04.31462 00 19 42.01 -04 45 45.7 19.1 V 703 – Catalina Sky Survey MPS 479941
